Location: Chin
(49.7667°N, 112.4500°W)
Time: 10:22:06
(UTC+00:00)

N. Korean satellite - Pass Details

Date: 02 December 2021
Orbit: 447 x 491 km, 97.3° (Epoch: 20 January)

Event Time Altitude Azimuth Distance (km) Brightness Sun altitude
Rises 13:35:58 0° 4° (N) 2,479 10.0 -14.1°
Reaches altitude 10° 13:38:11 10° 352° (N) 1,595 8.9 -13.7°
Maximum altitude 13:41:09 28° 292° (WNW) 869 7.2 -13.3°
Drops below altitude 10° 13:44:06 10° 231° (SW) 1,574 8.8 -12.8°
Sets 13:46:16 0° 219° (SW) 2,440 9.9 -12.5°
